This is the latest recevied weather packets stored in our database for station/object EA4BHK-10. If no packets are shown the sender has not sent any weather packets the latest 10 day(s).
| Time | Temp. | Humidity | Pressure | Rain* | Wind** | Luminosity | Snow |
|---|---|---|---|---|---|---|---|
| 1777938351 | 7.78° C | 78% | 1018.1 hPa | - | - | - | - |
| 1777937444 | 7.22° C | 79% | 1018.2 hPa | - | - | - | - |
| 1777936544 | 7.22° C | 80% | 1018.3 hPa | - | - | - | - |
| 1777935644 | 7.22° C | 80% | 1018.2 hPa | - | - | - | - |
| 1777934744 | 7.78° C | 80% | 1018.1 hPa | - | - | - | - |
| 1777933919 | 7.78° C | 80% | 1018.1 hPa | - | - | - | - |
| 1777933851 | 7.78° C | 80% | 1018.1 hPa | - | - | - | - |
| 1777932944 | 8.33° C | 79% | 1018.1 hPa | - | - | - | - |
| 1777932278 | 8.33° C | 78% | 1018 hPa | - | - | - | - |
| 1777932051 | 8.33° C | 78% | 1018 hPa | - | - | - | - |
| 1777931143 | 8.89° C | 77% | 1017.8 hPa | - | - | - | - |
| 1777930244 | 8.89° C | 76% | 1017.8 hPa | - | - | - | - |
| 1777929662 | 8.89° C | 76% | 1017.7 hPa | - | - | - | - |
| 1777928769 | 9.44° C | 75% | 1017.4 hPa | - | - | - | - |
| 1777927862 | 9.44° C | 75% | 1017.4 hPa | - | - | - | - |
| 1777927046 | 9.44° C | 73% | 1017.3 hPa | - | - | - | - |
| 1777926962 | 9.44° C | 73% | 1017.3 hPa | - | - | - | - |
| 1777926062 | 10.56° C | 71% | 1016.7 hPa | - | - | - | - |
| 1777925162 | 10.56° C | 71% | 1016.3 hPa | - | - | - | - |
| 1777924261 | 11.11° C | 70% | 1015.9 hPa | - | - | - | - |
| 1777923362 | 11.67° C | 69% | 1015.6 hPa | - | - | - | - |
| 1777922469 | 11.67° C | 67% | 1015.3 hPa | - | - | - | - |
| 1777921562 | 12.22° C | 64% | 1015 hPa | - | - | - | - |
| 1777920662 | 12.22° C | 64% | 1014.7 hPa | - | - | - | - |
| 1777919769 | 12.78° C | 63% | 1014.4 hPa | - | - | - | - |
* Rain since midnight (hover to see other rain measurements)
** Current wind speed in m/s (hover to see current wind gust speed)